KMCW

Mason City Municipal Airport

Airport
ICAO code
KMCW
Summary
ICAO Region
NAM
ICAO Territory
Location

Mason City Municipal Airport,

Coordinates
43° 8' 60" N , 93° 20' 17" W
KCC
Airport CFIT
Altimeter Temperature Error Correction
Metar
KMCW 181553Z AUTO 30012KT 10SM FEW018 OVC040 08/04 A3011 RMK AO2 SLP197 T00830044

Description

Mason City Municipal Airport is a public use airport located 9 km west of the central business district of Mason City, in Cerro Gordo County, Iowa.

Climatology

Humid continental climate (Köppen climate classification Dfa) - characterized by four seasons: cold, windy, snowy winters, mild springs, hot, humid summers, and crisp and relatively short autumns. Precipitation reaches its lowest in January and February and peaks in summer and latter half of spring.

Runways

Designator Length Width Surface Rops
12/30 1677 46 ASP Yes/Yes
18/36 1982 46 ASP Yes/Yes

Airport map

Aerial View

SKYbrary Partners:

Safety knowledge contributed by: